Regional Weather Roundup
Issued by NWS

Home | Current Version | Previous Version | Text Only | Print | Product List | Glossary Off
Versions: 1 2 3 4 5 6 7 8 9 10 11 12 13 14 15 16 17 18 19 20 21 22 23 24 25 26 27 28 29 30 31 32 33 34 35 36 37 38 39 40 41 42 43 44 45 46 47 48 49 50

000
ASUS43 KBIS 280320
RWRND

NORTH DAKOTA REGIONAL WEATHER ROUNDUP
NATIONAL WEATHER SERVICE BISMARCK ND
1000 PM CDT WED AUG 27 2014

NOTE: "FAIR" INDICATES FEW OR NO CLOUDS BELOW 12,000 FEET WITH NO
SIGNIFICANT WEATHER AND/OR OBSTRUCTIONS TO VISIBILITY.


NDZ001>003-009>011-017-280400-
NORTHWEST NORTH DAKOTA

CITY           SKY/WX    TMP DP  RH WIND       PRES   REMARKS
WILLISTON      CLEAR     72  53  51 S8        29.95R
MINOT          CLEAR     64  57  78 SE5       29.99S
MINOT AFB      CLEAR     61  60  94 S9        29.99R
$$

NDZ018>021-031>035-040>046-280400-
SOUTHWEST NORTH DAKOTA

CITY           SKY/WX    TMP DP  RH WIND       PRES   REMARKS
BISMARCK       PTCLDY    66  60  81 S8        30.05R
DICKINSON      MOCLDY    64  60  87 S10       30.03R
GARRISON         N/A     62  59  90 S7        30.02R
HETTINGER ARPT PTCLDY    62  60  93 SE6       30.07R
$$

NDZ004>008-012>016-024-026-027-054-280400-
NORTHEAST NORTH DAKOTA

CITY           SKY/WX    TMP DP  RH WIND       PRES   REMARKS
GRAND FORKS    CLEAR     63  58  83 SE7       30.06S
GRND FRKS AFB  CLEAR     61  61  99 S6        30.07S
DEVILS LAKE    CLEAR     64  55  72 S8        30.04S
$$

NDZ022-023-025-028>030-036>039-047>053-280400-
SOUTHEAST NORTH DAKOTA

CITY           SKY/WX    TMP DP  RH WIND       PRES   REMARKS
FARGO          MOCLDY    66  60  81 SE8       30.08R
JAMESTOWN      CLOUDY    66  61  84 SE7       30.06S
$$



USA.gov is the U.S. government's official web portal to all federal, state and local government web resources and services.